Location: Bonac
(42.8765°N, 0.9753°E)
Time: 05:49:15
(UTC+00:00)

ISS - Pass Details

Date: 12 January 2026
Orbit: 413 x 429 km, 51.6° (Epoch: 10 February)

Event Time Altitude Azimuth Distance (km) Brightness Sun altitude
Rises 18:05:21 0° 217° (SW) 2,346 0.9 -14.6°
Reaches altitude 10° 18:07:30 10° 209° (SSW) 1,490 -0.3 -15.0°
Maximum altitude 18:10:38 39° 139° (SE) 647 -3.1 -15.6°
Enters shadow 18:11:26 33° 104° (ESE) 732 -3.0 -15.7°
